Flag for Germany Weather past 2 weeks in Tuttlingen, Baden-Württemberg, Germany

Now
62 °F

Overcast.


Feels Like: 62 °F
Forecast: 33 / 71 °F
Wind: 6 mph from West

Location: Konstanz

Current Time: May 30, 2015 at 11:33:28 AM

Latest Report: May 30, 2015 at 11:00 AM


Visibility: 37 mi

Pressure: 29.99 "Hg

Humidity: 61%

Dew point: 48 °F

Location of TuttlingenLocation

Historic Weather in Tuttlingen — Graph

°F

Tuttlingen temperature yesterday

Maximum temperature yesterday: 75 °F (at 5:00 PM)
Minimum temperature yesterday: 50 °F (at 6:00 AM)
Average temperature yesterday: 65 °F

Past Weeks' High & Low Weather Summary

 TemperatureHumidityPressure
High75 °F (May 18, 5:00 PM)97% (May 15, 2:00 PM)30.33 "Hg (May 15, 2:00 PM)
Low44 °F (May 28, 5:00 AM)26% (May 28, 5:00 PM)29.70 "Hg (May 18, 7:00 PM)
Average56 °F73%30.06 "Hg
* Reported May 15 10:00 AM — May 30 10:00 AM, Tuttlingen, Weather by CustomWeather, © 2015

Note: Actual official high and low records may vary slightly from our data, if they occured in-between our weather recording intervals... More about our weather records

Advertising

Tuttlingen weather history for previous 24 hours

 ConditionsComfort  
Time TempWeatherWind HumidityBarometerVisibility
10:00 AM
Sat, May 30
63 °FOvercast.6 mph58%29.98 "Hg34 mi
9:00 AM62 °FOvercast.5 mph61%29.97 "Hg31 mi
8:00 AM59 °FOvercast.3 mph72%29.97 "Hg28 mi
7:00 AM57 °FOvercast.2 mph78%29.97 "Hg25 mi
6:00 AM57 °FOvercast.3 mph77%29.96 "Hg25 mi
5:00 AM58 °FOvercast.2 mph74%29.95 "Hg25 mi
4:00 AM58 °FOvercast.5 mph71%29.94 "Hg34 mi
3:00 AM57 °FOvercast.2 mph86%29.94 "Hg22 mi
2:00 AM58 °FOvercast.1 mph85%29.93 "Hg18 mi
1:00 AM61 °FLight rain. Overcast.1 mph65%29.90 "Hg22 mi
12:00 AM62 °FPassing clouds.2 mph54%29.89 "Hg25 mi
11:00 PM
Fri, May 29
65 °FPassing clouds.3 mph47%29.86 "Hg25 mi
10:00 PM66 °FPassing clouds.2 mph49%29.84 "Hg25 mi
9:00 PM69 °FSunny.3 mph41%29.81 "Hg28 mi
8:00 PM72 °FPassing clouds.6 mph37%29.79 "Hg25 mi
7:00 PM73 °FSunny.7 mph40%29.77 "Hg17 mi
6:00 PM75 °FSunny.5 mph37%29.76 "Hg16 mi
5:00 PM75 °FScattered clouds.5 mph34%29.78 "Hg22 mi
4:00 PM75 °FScattered clouds.5 mph33%29.79 "Hg17 mi
3:00 PM74 °FPartly sunny.2 mph41%29.81 "Hg22 mi
2:00 PM73 °FOvercast.2 mph36%29.84 "Hg22 mi
1:00 PM71 °FOvercast.3 mph40%29.87 "Hg16 mi
12:00 PM70 °FOvercast.1 mph57%29.88 "Hg16 mi
11:00 AM65 °FOvercast.1 mph58%29.92 "Hg16 mi
Weather by CustomWeather, © 2015

See weather overviewHow to use our weather pages